04/09/01,01:08:27,  1008,  1008,   966,  1008,
04/09/08,02:09:28,  1008,  1008,   952,  1008,
04/09/08,06:09:06,   972,  1009,   982,  1009,
04/09/08,10:09:06,   841,   858,   921,   984,
04/09/08,14:09:06,   824,   827,   905,   882,
04/09/08,18:09:06,   789,   781,   890,   846,
04/09/08,22:09:06,   840,   845,   885,   832,
04/09/09,02:09:08,  1005,  1005,   955,   972,
04/09/09,06:09:06,   900,  1008,   977,  1008,
04/09/09,10:09:06,   803,   788,   913,   940,
04/09/09,14:09:06,   803,   788,   900,   859,
04/09/09,18:09:06,   801,   788,   892,   840,
04/09/09,22:09:06,   806,   802,   884,   833,
04/09/10,02:09:18,  1003,  1005,   952,   968,
04/09/10,06:09:06,   847,   856,   948,  1008,
04/09/10,10:09:06,   809,   796,   904,   896,
04/09/10,14:09:06,   795,   788,   891,   844,
04/09/10,18:09:06,   784,   777,   881,   828,
04/09/10,22:09:06,   800,   794,   874,   820,
04/09/11,02:09:08,   948,   957,   916,   922,
04/09/11,06:09:06,   864,   936,   944,  1007,
04/09/11,10:09:06,   776,   758,   886,   894,
04/09/11,14:09:06,   778,   764,   876,   827,
04/09/11,18:09:06,   770,   761,   868,   812,
04/09/11,22:09:06,   769,   768,   853,   792,
04/09/12,02:09:17,  1001,  1004,   931,   940,
04/09/12,06:09:06,   892,   948,   940,  1008,
04/09/12,10:09:06,   775,   758,   884,   900,
04/09/12,14:09:06,   768,   746,   865,   810,
04/09/12,18:09:06,   773,   763,   864,   806,
04/09/12,22:09:06,   794,   794,   857,   807,
04/09/13,02:09:08,   980,  1004,   932,   960,
04/09/14,06:09:06,   957,  1008,   970,  1008,
04/09/14,10:09:06,   827,   848,   909,   965,
04/09/14,14:09:06,   758,   752,   880,   845,
04/09/14,18:09:06,   712,   700,   860,   789,
04/09/14,22:09:06,   722,   717,   844,   760,
04/09/15,02:09:07,   952,  1004,   922,   917,
04/09/15,03:42:10,   874,  1000,   939,  1000,
04/09/15,10:39:06,   714,   698,   864,   857,
04/09/15,14:39:06,   677,   659,   843,   768,
04/09/15,18:39:06,   651,   632,   821,   726,
04/09/15,22:39:06,   704,   700,   813,   717,
04/09/16,02:39:08,   923,  1004,   901,   930,
04/09/16,06:39:06,   860,  1005,   917,  1008,
04/09/16,10:39:06,   718,   708,   845,   856,
04/09/16,14:39:06,   700,   692,   829,   768,
04/09/16,18:39:06,   697,   693,   817,   744,
04/09/16,22:39:06,   791,   784,   824,   762,
04/09/17,02:40:48,   900,   909,   866,   896,
04/09/17,06:39:06,   908,  1000,   898,   979,
04/09/17,10:39:06,   793,   796,   851,   879,
04/09/17,14:39:06,   767,   768,   837,   806,
04/09/17,18:39:06,   749,   750,   828,   783,
04/09/17,22:39:06,   832,   810,   834,   794,
04/09/18,02:39:08,   989,  1004,   892,   936,
04/09/18,06:39:06,   889,   950,   904,   992,
04/09/18,10:39:06,   818,   838,   861,   890,
04/09/18,14:39:06,   795,   816,   852,   832,
04/09/18,18:39:06,   787,   808,   844,   805,
04/09/18,22:39:06,   840,   862,   844,   808,
04/09/19,02:40:48,   978,  1005,   920,   973,
04/09/19,06:39:06,   924,  1008,   936,  1008,
04/09/19,10:39:06,   816,   816,   876,   912,
04/09/19,14:39:06,   784,   784,   864,   835,
04/09/19,18:39:06,   800,   794,   858,   816,
04/09/19,22:39:06,   840,   836,   861,   828,
04/09/20,02:39:08,   987,  1004,   904,   931,
04/09/20,06:39:06,   928,  1004,   921,   996,
04/09/20,10:39:06,   832,   849,   880,   900,
04/09/20,14:39:06,   828,   829,   874,   851,
04/09/20,18:39:06,   804,   805,   864,   832,
04/09/20,22:39:06,   872,   883,   872,   844,
04/09/21,02:40:48,   977,  1007,   940,  1004,
04/09/21,06:39:06,   906,   932,   952,  1008,
04/09/21,10:39:06,   848,   861,   898,   922,
04/09/21,14:39:06,   820,   839,   888,   861,
04/09/21,18:39:06,   792,   800,   877,   835,
04/09/21,22:39:06,   849,   844,   876,   832,
04/09/22,02:39:07,   922,   928,   930,   978,
04/09/22,06:39:06,   804,   800,   898,   936,
04/09/22,10:39:06,   792,   787,   876,   850,
04/09/22,14:39:06,   790,   781,   868,   824,
04/09/22,18:39:06,   776,   772,   860,   816,
04/09/22,22:39:06,   813,   808,   857,   812,
04/09/23,02:40:47,   904,   945,   889,   902,
04/10/04,07:11:12,   758,   761,   784,   787,
04/10/04,11:09:06,   740,   736,   776,   760,
04/10/04,15:09:06,   729,   724,   770,   746,
04/10/04,19:09:06,   723,   729,   768,   738,
04/10/04,23:09:06,   720,   722,   764,   736,
04/10/05,03:09:06,   736,   738,   768,   750,
04/10/05,07:09:08,   725,   728,   763,   753,
04/10/05,11:09:06,   725,   729,   758,   736,
04/10/05,15:09:06,   726,   724,   756,   733,
04/10/05,19:09:06,   705,   707,   749,   723,
04/10/05,23:09:06,   745,   763,   757,   737,
04/10/06,03:09:06,   883,   973,   821,   874,
04/10/06,07:09:08,   780,   878,   816,   912,
05/02/05,02:37:06,   391,   390,   433,   414,
05/02/05,06:37:06,   393,   438,   438,   472,
05/02/05,10:37:06,   405,   436,   444,   516,
05/02/05,14:37:07,   410,   409,   439,   514,
05/02/05,18:37:06,   404,   386,   428,   445,
05/02/05,22:37:06,   395,   374,   422,   405,
05/02/06,02:37:06,   389,   370,   416,   398,
05/02/06,06:37:06,   388,   408,   421,   454,
05/02/06,10:37:06,   393,   426,   428,   496,
05/02/06,14:37:08,   396,   406,   424,   493,
05/02/06,18:37:06,   390,   338,   409,   424,
05/02/06,22:37:06,   376,   325,   398,   373,
05/02/07,02:37:06,   369,   363,   398,   375,
05/02/07,06:37:06,   372,   406,   405,   440,
05/02/07,10:37:06,   386,   496,   417,   507,
05/02/07,14:37:08,   398,   456,   416,   528,
05/02/07,18:37:06,   386,   317,   392,   426,
05/02/07,22:37:06,   362,   310,   378,   352,
05/02/08,02:37:06,   350,   337,   377,   350,
05/02/08,06:37:06,   352,   415,   392,   425,
05/02/08,10:37:06,   373,   480,   410,   494,
05/02/08,14:37:08,   386,   458,   412,   504,
05/02/08,18:37:06,   388,   410,   402,   444,
05/02/08,22:37:06,   386,   416,   400,   409,
05/02/09,02:37:06,   385,   419,   398,   405,
05/02/09,06:37:06,   392,   466,   413,   473,
05/02/09,10:37:06,   404,   478,   424,   512,
05/02/09,14:37:07,   408,   456,   425,   519,
05/02/09,18:37:06,   406,   396,   412,   454,
05/02/09,22:37:06,   392,   381,   398,   394,
05/02/10,02:37:06,   387,   398,   403,   397,
05/02/10,06:37:06,   392,   432,   411,   454,
05/02/10,10:37:06,   400,   441,   420,   494,
05/02/10,14:37:08,   402,   430,   418,   497,
05/02/10,18:37:06,   396,   381,   406,   432,
05/02/10,22:37:06,   385,   374,   400,   390,
05/02/11,02:37:06,   382,   385,   400,   391,
05/02/11,06:37:06,   388,   420,   408,   454,
05/02/11,10:37:06,   397,   434,   417,   494,
05/02/11,14:37:08,   400,   421,   413,   486,
05/02/11,18:37:06,   398,   384,   404,   428,
05/02/11,22:37:06,   389,   385,   397,   389,
05/02/12,02:37:06,   384,   385,   395,   390,
05/02/12,06:37:06,   385,   416,   405,   452,
05/02/12,10:37:06,   394,   620,   420,   502,
05/02/12,14:37:07,   403,   459,   428,   540,
05/02/12,18:37:06,   398,   385,   407,   449,
05/02/12,22:37:06,   388,   381,   400,   395,
05/02/13,02:37:06,   380,   349,   389,   376,
05/02/13,06:37:06,   374,   394,   397,   429,
05/02/13,10:37:06,   384,   438,   408,   478,
05/02/13,14:37:08,   391,   400,   403,   477,
05/02/13,18:37:06,   385,   365,   392,   410,
05/02/13,22:37:06,   372,   326,   380,   364,
05/02/14,02:37:06,   358,   325,   374,   348,
05/02/14,06:37:06,   354,   390,   384,   411,
05/02/14,10:37:06,   370,   470,   395,   477,
05/02/14,14:37:08,   388,   451,   397,   502,
05/02/14,18:37:06,   380,   345,   379,   415,
05/02/14,22:37:06,   364,   343,   372,   362,
05/02/15,02:37:06,   353,   325,   368,   353,
05/02/15,06:37:06,   350,   401,   374,   410,
05/02/15,10:37:06,   368,   645,   399,   498,
05/02/15,14:37:08,   389,   497,   394,   525,
05/02/15,18:37:06,   380,   274,   367,   414,
05/02/15,22:37:06,   348,   248,   349,   324,
05/02/16,02:37:06,   322,   231,   338,   297,
05/02/16,06:37:06,   311,   342,   349,   363,
05/02/16,10:37:06,   331,   480,   377,   474,
05/02/16,14:37:08,   356,   422,   372,   495,
05/02/16,18:37:06,   351,   330,   352,   393,
05/02/16,22:37:06,   341,   362,   354,   357,
05/02/17,02:37:06,   342,   360,   355,   360,
05/02/17,06:37:06,   352,   410,   366,   421,
05/02/17,10:37:06,   368,   446,   382,   474,
05/02/17,14:37:08,   377,   424,   384,   476,
05/02/17,18:37:06,   381,   416,   380,   425,
05/02/17,22:37:06,   386,   414,   381,   406,
05/02/18,02:37:06,   393,   421,   386,   411,
05/02/18,06:37:06,   404,   432,   390,   452,
05/02/18,10:37:06,   412,   455,   400,   485,
05/02/18,14:38:18,   414,   448,   404,   492,
05/02/19,15:18:58,   409,   434,   416,   512,
05/02/19,22:37:06,   401,   389,   400,   406,
05/02/20,02:37:06,   396,   386,   397,   395,
05/02/20,06:37:06,   396,   426,   404,   447,
05/02/20,10:37:06,   405,   462,   417,   497,
05/02/20,14:37:08,   411,   434,   416,   502,
05/02/20,18:37:06,   405,   396,   406,   437,
05/02/20,22:37:06,   392,   356,   396,   392,
05/02/21,02:37:06,   382,   340,   392,   381,
05/02/21,06:37:06,   375,   388,   393,   410,
05/02/21,10:37:06,   384,   423,   406,   469,
05/02/21,14:37:08,   388,   400,   404,   473,
05/02/21,18:37:06,   385,   377,   395,   412,
05/02/21,22:37:06,   383,   372,   392,   386,
05/02/22,02:37:06,   379,   372,   388,   381,
05/02/22,06:37:06,   380,   412,   395,   432,
05/02/22,10:37:06,   384,   433,   404,   476,
05/02/22,14:37:08,   387,   406,   402,   481,
05/02/22,18:37:06,   387,   389,   393,   412,
05/02/22,22:37:06,   384,   359,   385,   380,
05/02/23,02:37:06,   378,   371,   385,   374,
05/02/23,06:37:06,   378,   405,   391,   425,
05/02/23,10:37:06,   384,   432,   400,   470,
05/02/23,14:37:08,   386,   402,   397,   468,
05/02/23,18:37:06,   385,   384,   389,   407,
05/02/23,22:37:06,   381,   380,   387,   384,
05/02/24,02:37:06,   379,   376,   384,   380,
05/02/24,06:37:06,   380,   404,   390,   428,
05/02/24,10:37:06,   385,   421,   398,   476,
05/02/24,14:34:19,   354,   368,   352,   398,
05/02/24,14:37:08,   389,   394,   394,   460,
05/05/15,00:06:48,   245,   156,   232,   157,
05/05/15,04:05:06,   240,   132,   215,   172,
05/05/15,08:05:06,   237,   148,   212,   166,
05/05/15,12:05:06,   234,   161,   213,   172,
05/05/15,16:05:06,   232,   160,   212,   175,
05/05/15,20:05:06,   229,   144,   210,   174,
05/05/15,23:53:03,   228,   128,   208,   172,
